KD9IXX-13 Weather Reports


Display with metric or nautical units.
time (UTC)temp
F
wind
direction
speed
MPH
gust
MPH
rain 1hr
in
rain 24hr
in
rain mn
in
humidity
%
barometer
mb
20260905084502 77 280 0.0 0.0 0.00 0.00 0.00 99 1014.5
20260905084002 77 280 0.0 0.0 0.00 0.00 0.00 99 1014.5
20260905083502 77 280 0.0 0.0 0.00 0.00 0.00 99 1014.4
20260905083002 77 280 0.0 0.0 0.00 0.00 0.00 99 1014.3
20260905082502 78 280 0.0 0.0 0.00 0.00 0.00 99 1014.5
20260905081502 77 280 0.0 0.0 0.00 0.00 0.00 99 1014.3
20260905080004 77 280 0.0 0.0 0.00 0.00 0.00 99 1014.5
20260905075502 77 280 0.0 0.0 0.00 0.00 0.00 99 1014.3
20260905075001 77 280 0.0 0.0 0.00 0.00 0.00 99 1014.5
20260905073501 77 280 0.0 0.0 0.00 0.00 0.00 99 1014.2
20260905073002 77 280 0.0 0.0 0.00 0.00 0.00 99 1014.0
20260905072501 78 280 0.0 0.0 0.00 0.00 0.00 99 1014.2
20260905071001 78 281 0.0 0.0 0.00 0.00 0.00 99 1014.3
20260905063502 78 280 0.0 0.0 0.00 0.00 0.00 98 1014.7
20260905060002 78 281 0.0 0.0 0.00 0.00 0.00 97 1014.8
20260905055002 78 281 0.0 0.0 0.00 0.00 0.00 96 1014.7
20260905054501 78 281 0.0 0.0 0.00 0.00 0.00 96 1014.8
20260905054002 78 281 0.0 0.0 0.00 0.00 0.00 95 1014.9
20260905053502 79 281 0.0 0.0 0.00 0.00 0.00 95 1014.7
20260905052502 79 281 0.0 0.0 0.00 0.00 0.00 94 1014.9
20260905052001 79 281 0.0 0.0 0.00 0.00 0.00 94 1014.9
20260905051502 80 282 0.0 0.0 0.00 0.00 0.00 93 1014.6
20260905051002 80 282 0.0 0.0 0.00 0.00 0.00 93 1014.7
20260905050002 80 275 0.0 0.0 0.00 0.00 0.00 92 1014.6
20260905044503 80 283 0.0 0.0 0.00 0.00 0.00 93 1014.9
20260905044001 80 284 0.0 0.0 0.00 0.00 0.00 93 1014.8
20260905043502 80 284 0.0 0.0 0.00 0.00 0.00 92 1014.9
20260905042502 81 284 0.0 0.0 0.00 0.00 0.00 91 1014.9
20260905041503 81 284 0.0 0.0 0.00 0.00 0.00 90 1014.7
20260905041002 81 284 0.0 0.0 0.00 0.00 0.00 91 1014.8
20260905035002 80 285 0.0 0.0 0.00 0.00 0.00 93 1015.0
20260905033502 80 285 0.0 0.0 0.00 0.00 0.00 94 1015.1
20260905032002 80 285 0.0 0.0 0.00 0.00 0.00 94 1015.2
20260905031001 80 285 0.0 0.0 0.00 0.00 0.00 94 1015.4
20260905030502 80 285 0.0 0.0 0.00 0.00 0.00 94 1015.2
20260905023001 80 285 0.0 0.0 0.00 0.00 0.00 93 1015.1
20260905022502 80 285 0.0 0.0 0.00 0.00 0.00 93 1014.9
20260905020502 81 285 0.0 0.0 0.00 0.00 0.00 91 1015.0
20260905015501 82 285 0.0 0.0 0.00 0.00 0.00 90 1014.9
20260905013002 82 287 0.0 0.0 0.00 0.00 0.00 89 1014.3
20260905012502 83 287 0.0 0.0 0.00 0.00 0.00 88 1014.3
20260905012002 83 287 0.0 0.0 0.00 0.00 0.00 87 1014.5
20260905011502 83 287 0.0 0.0 0.00 0.00 0.00 87 1014.3
20260905011002 84 288 0.0 0.0 0.00 0.00 0.00 86 1014.3
20260905010502 84 288 0.0 0.0 0.00 0.00 0.00 85 1014.2
20260905005502 85 288 0.0 0.0 0.00 0.00 0.00 83 1014.1
20260905005002 85 278 0.0 0.0 0.00 0.00 0.00 83 1014.2
20260905003002 85 280 0.0 0.0 0.00 0.00 0.00 83 1014.1
20260905002502 86 280 0.0 0.0 0.00 0.00 0.00 82 1014.1
20260905000502 87 281 0.0 0.0 0.00 0.00 0.00 80 1014.2
20260905000002 88 281 0.0 0.0 0.00 0.00 0.00 79 1014.0
20260904234502 89 265 0.0 0.0 0.00 0.00 0.00 77 1014.4
20260904234002 89 285 0.0 0.0 0.00 0.00 0.00 76 1014.2
20260904233002 90 287 1.0 4.0 0.00 0.00 0.00 73 1014.2
20260904232502 91 281 1.0 3.0 0.00 0.00 0.00 73 1014.4
20260904231502 91 267 0.0 3.0 0.00 0.00 0.00 72 1014.4
20260904230002 92 247 2.0 5.0 0.00 0.00 0.00 70 1014.3
20260904225502 92 279 0.0 2.0 0.00 0.00 0.00 72 1014.4
20260904224002 92 263 1.0 5.0 0.00 0.00 0.00 71 1014.0
20260904223002 92 265 3.0 5.0 0.00 0.00 0.00 70 1014.3
20260904222501 93 282 0.0 3.0 0.00 0.00 0.00 70 1014.5
20260904222002 92 267 3.0 5.0 0.00 0.00 0.00 70 1014.1
20260904221502 92 238 1.0 4.0 0.00 0.00 0.00 70 1014.2
20260904221002 92 283 2.0 4.0 0.00 0.00 0.00 70 1014.2
20260904220501 91 267 2.0 3.0 0.00 0.00 0.00 71 1014.1
20260904214002 92 282 2.0 6.0 0.00 0.00 0.00 69 1014.0
20260904213002 93 277 2.0 6.0 0.00 0.00 0.00 68 1014.2
20260904212501 92 274 4.0 5.0 0.00 0.00 0.00 68 1014.2
20260904212002 92 276 2.0 7.0 0.00 0.00 0.00 67 1014.3
20260904211501 93 186 4.0 7.0 0.00 0.00 0.00 68 1014.2
20260904210002 92 256 3.0 6.0 0.00 0.00 0.00 69 1014.4
20260904205501 93 255 2.0 6.0 0.00 0.00 0.00 67 1014.6
20260904204502 93 196 4.0 6.0 0.00 0.00 0.00 68 1014.8
20260904203002 91 175 4.0 6.0 0.00 0.00 0.00 71 1014.9
20260904202502 92 205 2.0 7.0 0.00 0.00 0.00 69 1014.7
20260904201501 92 235 2.0 5.0 0.00 0.00 0.00 70 1015.0
20260904200001 91 222 3.0 5.0 0.00 0.00 0.00 71 1015.0
20260904194002 91 233 3.0 5.0 0.00 0.00 0.00 70 1015.3
20260904193502 91 272 3.0 5.0 0.00 0.00 0.00 68 1015.4
20260904193002 91 181 4.0 6.0 0.00 0.00 0.00 68 1015.6
20260904191001 91 181 3.0 5.0 0.00 0.00 0.00 68 1015.9
20260904185502 89 241 2.0 5.0 0.00 0.00 0.00 73 1015.8
20260904185002 89 11 2.0 6.0 0.00 0.00 0.00 73 1015.9
20260904184502 90 177 1.0 4.0 0.00 0.00 0.00 70 1016.1
20260904183002 88 306 1.0 6.0 0.00 0.00 0.00 75 1016.5
20260904181002 87 61 3.0 6.0 0.00 0.00 0.00 76 1016.8
20260904175001 86 135 3.0 5.0 0.00 0.00 0.00 79 1017.4
20260904174002 86 44 2.0 5.0 0.00 0.00 0.00 79 1017.6
20260904170502 87 17 2.0 7.0 0.00 0.00 0.00 77 1017.6
20260904165502 86 315 3.0 9.0 0.00 0.00 0.00 79 1017.7
20260904162502 87 91 5.0 7.0 0.00 0.00 0.00 75 1017.3
20260904162002 89 191 3.0 5.0 0.00 0.00 0.00 74 1017.4
20260904161002 88 7 3.0 4.0 0.00 0.00 0.00 71 1017.1
20260904160502 89 299 3.0 4.0 0.00 0.00 0.00 69 1017.1
20260904160002 89 310 1.0 3.0 0.00 0.00 0.00 71 1017.1
20260904155002 89 297 1.0 2.0 0.00 0.00 0.00 70 1017.1
20260904154002 89 222 1.0 5.0 0.00 0.00 0.00 73 1016.7
20260904153501 88 287 2.0 3.0 0.00 0.00 0.00 73 1016.7
20260904153002 88 284 2.0 6.0 0.00 0.00 0.00 73 1016.8
20260904150004 86 277 3.0 5.0 0.00 0.00 0.00 76 1016.6
20260904145502 87 332 4.0 5.0 0.00 0.00 0.00 74 1016.6
20260904143502 85 304 6.0 7.0 0.00 0.00 0.00 78 1016.4
20260904134002 82 283 0.0 0.0 0.00 0.00 0.00 82 1016.4
20260904133502 83 240 0.0 0.0 0.00 0.00 0.00 80 1016.2
20260904132502 83 303 0.0 0.0 0.00 0.00 0.00 82 1016.5
20260904131001 80 271 0.0 0.0 0.00 0.00 0.00 86 1016.0
20260904130502 80 288 0.0 0.0 0.00 0.00 0.00 87 1016.1
20260904125502 78 283 0.0 0.0 0.00 0.00 0.00 89 1015.8
20260904122502 75 274 0.0 0.0 0.00 0.00 0.00 94 1015.5
20260904122001 75 276 0.0 0.0 0.00 0.00 0.00 94 1015.1
20260904121002 74 277 0.0 0.0 0.00 0.00 0.00 95 1015.3
20260904120502 74 276 0.0 0.0 0.00 0.00 0.00 96 1015.1
20260904115002 74 278 0.0 0.0 0.00 0.00 0.00 95 1015.0
20260904114002 74 246 0.0 0.0 0.00 0.00 0.00 94 1014.8
20260904113501 74 279 0.0 0.0 0.00 0.00 0.00 95 1014.8
20260904113002 74 277 0.0 0.0 0.00 0.00 0.00 95 1014.6
20260904111501 74 207 1.0 2.0 0.00 0.00 0.00 95 1014.4
20260904111004 74 257 1.0 3.0 0.00 0.00 0.00 95 1014.6
20260904110002 74 283 0.0 2.0 0.00 0.00 0.00 95 1014.7
20260904104002 75 264 1.0 6.0 0.00 0.00 0.00 95 1014.5
20260904103002 74 271 0.0 0.0 0.00 0.00 0.00 96 1014.6
20260904102501 75 243 1.0 3.0 0.00 0.00 0.00 96 1014.6
20260904094502 75 259 1.0 3.0 0.00 0.00 0.00 96 1015.1
20260904093501 75 231 0.0 2.0 0.00 0.00 0.00 95 1015.1
20260904092502 76 263 0.0 0.0 0.00 0.00 0.00 94 1015.3
20260904091002 76 275 0.0 0.0 0.00 0.00 0.00 94 1015.2
20260904090501 76 274 0.0 0.0 0.00 0.00 0.00 93 1015.3
20260904090002 76 277 0.0 0.0 0.00 0.00 0.00 93 1015.4